Theta_e
298 295 295 296 294 295 291 292 287 288 290 295 294 295 298 300 301 301 301 301 301 302 303 304 305 306 308 309 309 308 306 304 303 304 305 305 304 303 303 302 301 300 298 297
288 295 293 292 294 293 294 293 292 292 289 293 293 296 295 296 296 295 295 294 294 295 298 300 303 304 306 308 309 313 309 307 306 306 306 304 304 303 303 301 299 299 296 295
285 289 287 284 289 291 293 295 295 289 293 293 291 292 290 291 291 290 292 293 293 293 295 299 301 303 304 306 308 308 308 310 307 306 305 304 304 302 300 298 297 296 295 294
284 286 279 290 297 296 293 294 295 295 292 292 292 292 292 292 290 290 291 292 292 292 292 293 298 301 302 304 305 305 305 306 308 306 305 304 302 300 299 298 296 295 294 292
282 282 286 289 292 292 292 291 292 291 290 290 291 292 291 293 293 292 291 291 292 292 292 292 293 294 296 298 300 300 300 302 303 305 304 303 300 294 298 298 295 290 289 290
283 279 277 285 292 295 294 284 290 290 289 289 289 284 288 293 294 293 293 292 289 291 292 292 292 294 293 292 292 294 296 299 300 302 303 297 301 296 293 298 292 293 289 289
283 280 282 290 292 293 283 284 290 290 289 288 285 286 289 291 289 291 291 291 292 291 289 290 291 291 290 290 290 290 292 291 293 298 303 301 296 297 296 292 293 290 289 288
283 281 278 292 291 284 286 290 290 290 289 288 288 288 287 289 288 289 289 290 290 289 289 290 290 290 289 289 291 291 292 291 291 292 294 300 301 300 294 291 291 290 288 287
285 284 289 292 288 289 289 287 287 286 287 287 286 285 286 286 287 288 288 288 289 288 289 289 290 290 288 290 291 290 290 290 289 290 290 291 298 298 295 293 292 289 289 288
284 286 287 288 288 288 287 286 287 287 287 287 284 282 282 286 287 288 288 289 289 290 289 288 289 290 290 291 291 288 288 289 289 290 291 293 294 294 294 292 292 289 289 289
282 287 287 286 286 287 288 288 288 288 288 287 287 287 288 289 289 290 290 290 289 289 289 290 291 292 291 290 289 289 290 289 290 290 291 291 292 295 293 294 294 291 290 290
279 286 285 285 287 289 287 287 287 287 287 288 289 289 290 288 289 288 287 287 287 287 287 288 288 289 291 292 291 288 288 290 291 290 290 291 291 291 290 291 290 291 292 293
284 289 288 288 289 288 286 287 288 288 288 288 288 288 287 287 287 287 286 286 286 286 287 287 287 287 288 289 286 286 287 288 288 288 289 289 289 290 289 289 289 289 289 290
287 287 284 285 284 287 287 288 290 289 289 288 287 288 287 286 286 286 285 286 287 287 287 287 287 286 287 287 287 288 288 287 287 288 289 290 290 290 290 289 286 287 287 289
286 286 285 286 286 286 288 289 287 286 286 285 286 285 285 284 284 284 285 286 287 286 286 286 285 285 286 286 285 285 287 288 287 289 289 289 290 289 289 289 288 287 286 285
286 286 286 285 285 285 287 286 284 283 284 284 284 284 285 286 284 285 286 286 284 283 284 284 284 285 286 287 286 286 285 286 287 289 288 288 288 288 288 288 288 286 285 285
282 282 283 282 285 285 285 284 284 283 284 284 284 284 284 284 284 284 284 284 284 284 284 284 284 285 285 285 285 285 285 286 286 288 288 288 288 288 288 288 287 286 286 286
286 285 285 285 285 284 283 284 284 283 282 284 283 283 283 282 282 282 283 283 283 283 284 284 285 285 285 285 284 284 284 285 285 287 288 287 288 288 288 287 286 286 285 285
288 288 287 286 285 284 283 282 282 283 282 281 278 280 283 282 282 282 283 283 282 282 283 285 284 284 284 284 284 284 284 284 285 287 287 287 286 287 287 286 286 285 285 284
287 286 285 284 284 283 282 280 281 282 282 283 283 283 277 282 283 283 283 282 283 283 284 284 284 284 284 285 285 285 285 284 285 286 286 286 286 285 285 285 285 285 284 284
286 285 283 281 282 283 276 278 279 282 280 284 280 278 277 277 281 283 282 281 281 284 284 284 283 284 285 285 285 285 284 284 285 285 285 285 285 285 285 285 284 284 284 284
284 282 280 280 279 280 278 279 282 281 282 282 281 280 272 275 275 282 283 282 284 284 283 284 284 284 284 285 285 284 284 284 284 284 284 285 285 285 284 285 283 283 284 284
282 282 280 278 278 280 281 282 280 281 281 279 275 276 275 279 279 281 280 284 284 284 284 284 284 284 284 285 284 284 284 284 284 284 285 285 285 285 285 284 284 283 283 283
282 282 282 282 282 282 282 283 283 283 277 278 275 272 280 281 280 282 284 284 284 283 283 284 284 284 284 285 285 285 284 284 284 285 284 284 285 284 284 284 284 284 284 283
283 283 283 282 282 281 282 282 281 281 281 280 280 280 280 279 283 283 283 283 283 282 283 284 284 284 285 285 285 285 285 284 284 285 284 284 284 285 284 284 284 284 284 284
282 282 282 283 282 281 281 281 279 278 278 273 274 272 272 276 283 282 282 283 282 282 283 283 284 284 284 284 284 284 284 284 284 284 284 284 284 284 284 284 285 285 285 284
284 281 282 282 281 281 280 280 277 274 273 271 272 275 279 272 283 282 282 282 282 282 283 283 284 283 284 284 284 284 283 284 284 284 284 284 284 284 284 284 285 285 285 285
Wind_Speed
10 3 8 7 9 6 5 4 7 2 5 7 5 6 4 7 11 13 13 14 12 12 11 10 10 9 9 5 3 4 4 5 7 8 8 9 9 10 9 8 8 9 11 8
2 4 1 6 5 6 7 8 8 9 5 7 5 5 7 8 9 10 10 9 8 8 7 7 7 6 6 6 7 5 7 9 6 6 9 10 9 9 8 9 7 9 8 10
6 8 2 5 14 7 5 6 5 7 8 12 6 7 6 7 8 8 6 6 6 5 3 2 2 2 5 7 7 6 5 6 9 11 12 10 9 10 9 10 11 12 11 10
2 7 7 5 7 12 10 9 9 6 7 9 10 7 8 5 7 6 5 4 2 1 2 3 2 4 4 5 5 9 8 6 5 8 11 12 16 15 15 13 13 12 12 12
4 5 3 5 8 8 10 7 3 11 11 11 8 9 5 7 6 7 6 5 3 3 3 3 5 6 5 5 6 6 7 7 6 9 11 12 14 13 13 12 11 10 10 12
4 5 9 7 4 7 7 4 8 11 11 11 8 6 4 8 8 8 7 4 5 5 4 5 7 6 6 7 6 7 9 9 7 9 12 13 15 15 13 13 12 9 10 12
4 4 6 4 6 4 8 8 14 11 9 9 6 5 4 4 2 3 4 5 6 7 8 9 8 6 7 8 9 9 8 8 8 8 11 12 10 9 12 13 13 16 15 12
4 6 10 8 4 9 6 9 8 7 7 7 5 6 5 5 5 5 7 7 8 7 8 9 8 6 9 9 12 8 8 7 7 7 6 8 12 13 12 13 15 14 13 11
9 6 3 7 4 6 6 8 6 7 5 7 7 6 7 5 5 6 7 6 6 6 8 8 8 7 9 13 11 9 7 8 8 7 6 6 11 11 9 11 11 11 11 12
5 3 5 9 7 6 6 6 7 7 7 7 6 5 3 3 2 2 2 4 1 3 5 8 7 8 9 12 13 8 9 8 6 6 6 6 7 7 10 10 11 12 12 12
2 2 6 4 7 8 7 9 8 7 6 5 5 6 6 5 4 3 3 2 3 4 5 8 9 11 9 9 10 12 9 8 9 8 8 7 8 8 9 11 14 14 14 14
5 6 5 5 7 7 8 7 8 7 4 5 7 7 5 2 1 1 4 3 5 5 7 11 12 13 12 10 11 12 11 9 10 8 8 7 6 7 11 11 12 18 23 23
4 4 6 6 7 7 8 8 8 8 6 7 5 4 3 2 1 2 4 5 5 9 11 12 12 13 12 10 7 9 11 11 7 9 8 8 7 8 9 6 9 13 12 20
5 7 3 6 6 8 7 6 10 10 8 7 6 3 2 1 1 3 5 6 8 10 13 13 13 13 10 9 12 13 12 14 9 8 9 9 8 9 8 8 8 7 12 18
3 3 6 4 5 6 6 11 10 7 5 5 4 5 3 3 4 5 8 8 10 14 14 16 16 17 13 12 12 13 12 9 7 9 9 10 9 9 8 9 8 8 7 10
6 6 7 7 8 7 10 8 8 7 6 4 4 3 5 6 6 7 10 12 11 13 16 16 16 17 16 15 16 13 13 16 14 11 9 10 9 8 8 9 8 8 10 12
4 5 4 4 7 9 8 7 7 7 6 5 3 4 3 4 5 9 12 11 14 15 15 15 17 16 15 14 15 11 11 11 14 10 12 10 10 9 8 8 9 9 11 12
7 7 7 9 9 8 7 6 6 7 5 6 4 2 3 4 6 11 12 14 14 13 16 14 13 16 18 17 16 13 11 11 11 12 11 10 11 9 8 9 9 10 9 10
7 8 7 8 8 8 7 7 6 6 5 3 1 2 3 4 5 7 10 12 15 15 13 14 20 20 19 19 17 12 11 12 12 11 11 10 9 8 8 9 9 10 9 10
7 8 10 9 8 6 7 4 6 4 1 2 2 2 5 6 7 10 8 10 10 9 15 18 18 17 18 18 18 11 10 11 10 9 7 9 8 7 8 10 9 10 11 11
9 7 10 11 8 6 5 6 6 5 5 5 4 5 7 7 6 6 7 7 8 11 15 18 16 13 13 15 13 7 5 5 7 6 6 7 6 7 8 9 9 10 10 11
11 9 8 8 7 6 5 4 4 4 6 6 6 6 2 6 5 5 6 7 8 14 11 11 12 17 15 17 6 3 1 2 3 4 4 5 6 6 7 8 8 9 9 10
6 7 7 7 7 5 4 5 6 7 7 7 6 6 4 4 4 3 6 5 7 11 10 9 15 19 18 8 4 3 1 2 2 3 4 5 5 5 6 7 8 8 8 8
5 6 6 6 5 4 5 5 6 7 6 4 4 5 3 4 5 3 3 8 10 13 10 10 14 18 15 7 5 3 1 1 2 2 3 5 5 5 6 7 7 8 9 10
5 6 5 6 6 5 5 3 5 5 6 4 3 2 2 2 2 6 5 6 7 10 9 15 15 16 8 7 6 4 3 1 1 3 3 4 5 5 5 5 8 8 8 8
6 5 5 7 6 4 4 5 4 4 4 2 2 1 3 2 2 3 4 5 4 9 7 7 9 10 9 8 6 5 3 2 3 3 5 5 5 5 4 4 6 7 7 7
5 5 4 3 3 5 5 6 5 4 3 3 2 2 1 2 4 3 3 4 4 6 7 6 6 9 8 8 7 6 5 5 6 4 4 4 5 5 4 5 5 5 6 6
Wind_Direction
230 30 338 172 142 141 151 141 187 147 173 268 50 131 110 112 90 75 63 56 51 43 32 32 35 24 20 15 212 196 192 183 186 178 176 165 164 170 170 170 181 167 158 168
268 184 19 269 213 192 174 186 207 227 216 120 134 102 70 66 84 84 84 79 67 58 49 32 25 4 348 351 352 336 214 206 185 182 177 181 172 169 173 178 169 161 169 161
197 135 99 270 233 232 207 185 163 239 244 157 147 132 128 110 100 105 103 95 85 72 60 16 317 329 332 323 321 315 316 245 203 189 187 182 175 159 165 175 172 177 180 172
167 135 202 215 248 211 217 227 210 200 150 147 131 128 138 139 127 126 125 113 103 146 268 273 264 292 277 265 260 272 274 272 253 217 208 185 182 183 178 188 192 189 183 170
192 198 74 240 193 174 172 198 169 144 136 127 132 124 145 161 155 159 169 180 213 248 263 296 302 291 277 271 262 253 254 247 240 199 200 207 200 204 195 187 189 182 174 174
182 188 192 212 177 147 101 235 179 143 150 145 140 165 199 194 184 186 188 184 211 245 261 277 272 266 283 284 274 262 260 256 234 220 210 208 205 198 204 184 186 192 192 179
180 216 283 205 162 118 163 225 156 155 161 160 158 182 180 164 125 161 182 218 232 228 231 240 250 244 267 272 271 250 259 241 244 225 221 215 220 209 209 202 201 183 184 180
174 202 243 171 154 176 178 128 144 151 165 166 136 123 147 180 205 226 238 252 252 249 249 252 241 222 244 254 258 250 256 251 231 252 264 241 226 225 218 208 196 186 172 165
188 204 209 167 119 109 122 131 150 139 129 128 138 165 181 214 237 260 266 278 276 261 273 274 266 246 255 258 258 244 233 233 226 224 233 239 253 235 209 195 197 172 177 180
121 220 148 122 118 124 130 131 130 132 145 147 155 182 202 192 194 242 247 259 247 314 299 290 292 277 257 264 263 241 232 226 224 217 233 240 235 222 213 203 194 168 182 184
99 142 100 133 138 147 130 124 121 137 147 168 151 161 165 189 220 240 270 269 275 280 288 298 308 307 302 295 281 267 236 227 221 222 223 227 224 221 214 213 200 181 189 183
199 180 128 176 168 143 129 143 152 150 178 158 164 178 183 182 233 291 313 317 332 329 316 308 302 296 299 300 300 278 262 241 226 215 223 226 218 237 233 227 222 235 214 189
152 167 158 172 170 140 146 164 179 184 175 156 104 108 85 55 297 342 325 316 309 306 300 295 294 293 293 301 299 284 273 265 234 224 213 219 216 223 239 230 220 214 212 210
99 117 129 151 179 181 170 165 107 99 106 112 121 122 136 112 10 318 310 312 314 304 298 297 295 290 296 295 298 292 284 271 241 227 225 227 218 218 220 226 215 200 196 191
235 173 178 182 174 174 128 131 124 129 138 130 127 121 83 23 10 342 322 310 302 298 296 299 298 296 299 291 284 286 287 277 241 236 229 228 228 224 218 218 210 201 190 182
216 225 228 193 202 154 142 142 136 152 149 145 105 59 49 29 344 314 306 302 299 297 300 303 296 295 292 287 286 280 273 269 260 250 237 232 224 212 216 219 211 197 191 190
204 254 239 222 165 158 176 157 148 152 145 134 134 104 45 315 299 299 299 295 293 294 298 295 292 289 288 285 280 276 269 262 257 244 239 225 218 213 212 213 210 201 199 185
195 219 204 174 157 147 147 142 138 139 139 140 137 120 237 253 290 298 298 301 297 293 300 295 295 301 293 287 281 270 259 253 247 246 228 224 219 207 204 212 208 204 193 181
170 169 153 133 140 135 136 146 149 143 141 147 141 253 259 268 285 289 293 299 308 310 310 310 304 301 299 292 281 268 255 243 237 243 220 214 209 204 205 206 201 194 179 168
120 117 118 117 123 140 145 138 128 112 152 187 237 288 279 271 292 295 295 299 297 305 313 311 310 305 300 294 285 274 252 233 225 225 200 202 201 200 202 202 190 179 172 169
118 121 138 130 139 140 146 158 147 178 203 207 202 228 241 255 266 284 303 299 297 315 314 311 316 310 310 313 306 287 243 218 210 185 188 194 191 197 194 187 179 173 169 166
132 150 147 144 150 169 195 200 168 204 216 216 232 254 272 279 272 270 271 272 300 312 320 320 317 317 316 314 315 322 29 112 135 154 174 182 182 183 180 170 164 160 160 158
151 155 151 160 170 186 172 195 204 209 214 215 228 243 233 240 247 284 302 307 313 316 321 315 317 320 322 313 314 326 16 124 154 177 180 168 153 147 147 145 141 140 140 143
163 166 172 169 164 165 214 222 218 216 199 198 196 231 238 332 316 287 311 320 319 320 318 323 324 328 331 326 316 322 346 122 152 134 124 119 123 126 128 132 136 143 143 138
173 183 169 170 191 209 215 191 128 111 120 142 202 235 335 246 263 321 327 306 311 319 321 334 333 336 338 336 330 326 341 54 107 116 123 130 130 128 126 143 155 146 134 134
182 184 194 198 206 190 174 155 149 162 157 177 265 259 300 308 298 296 278 306 310 320 320 327 341 344 343 346 351 351 351 47 88 92 96 92 92 98 110 134 129 127 128 133
191 185 191 194 196 164 149 155 152 174 173 162 205 272 303 306 290 290 307 313 319 321 318 328 342 346 349 355 360 7 14 33 46 64 70 85 93 96 96 98 105 113 123 136